Year,Month,Day,Hour,Minute,Value (Times are PST for temperature in C)
2020,12,06,00,00,4.30
2020,12,06,00,01,4.30
2020,12,06,00,02,4.30
2020,12,06,00,03,4.30
2020,12,06,00,04,4.30
2020,12,06,00,05,4.30
2020,12,06,00,06,4.30
2020,12,06,00,07,4.30
2020,12,06,00,08,4.30
2020,12,06,00,09,4.30
2020,12,06,00,10,4.30
2020,12,06,00,11,4.30
2020,12,06,00,12,4.30
2020,12,06,00,13,4.20
2020,12,06,00,14,4.20
2020,12,06,00,15,4.20
2020,12,06,00,16,4.20
2020,12,06,00,17,4.20
2020,12,06,00,18,4.10
2020,12,06,00,19,4.10
2020,12,06,00,20,4.10
2020,12,06,00,21,4.00
2020,12,06,00,22,4.00
2020,12,06,00,23,4.00
2020,12,06,00,24,4.00
2020,12,06,00,25,4.00
2020,12,06,00,26,4.00
2020,12,06,00,27,4.00
2020,12,06,00,28,4.00
2020,12,06,00,29,4.00
2020,12,06,00,30,4.00
2020,12,06,00,31,3.90
2020,12,06,00,32,3.90
2020,12,06,00,33,3.90
2020,12,06,00,34,3.90
2020,12,06,00,35,3.90
2020,12,06,00,36,3.90
2020,12,06,00,37,3.90
2020,12,06,00,38,3.90
2020,12,06,00,39,3.90
2020,12,06,00,40,3.90
2020,12,06,00,41,3.90
2020,12,06,00,42,3.90
2020,12,06,00,43,3.90
2020,12,06,00,44,3.90
2020,12,06,00,45,3.90
2020,12,06,00,46,3.90
2020,12,06,00,47,3.90
2020,12,06,00,48,3.90
2020,12,06,00,49,3.90
2020,12,06,00,50,3.90
2020,12,06,00,51,3.90
2020,12,06,00,52,3.90
2020,12,06,00,53,3.90
2020,12,06,00,54,3.90
2020,12,06,00,55,3.90
2020,12,06,00,56,3.90
2020,12,06,00,57,3.80
2020,12,06,00,58,3.80
2020,12,06,00,59,3.80
2020,12,06,01,00,3.70
2020,12,06,01,01,3.70
2020,12,06,01,02,3.60
2020,12,06,01,03,3.60
2020,12,06,01,04,3.50
2020,12,06,01,05,3.40
2020,12,06,01,06,3.40
2020,12,06,01,07,3.30
2020,12,06,01,08,3.30
2020,12,06,01,09,3.30
2020,12,06,01,10,3.20
2020,12,06,01,11,3.20
2020,12,06,01,12,3.20
2020,12,06,01,13,3.20
2020,12,06,01,14,3.20
2020,12,06,01,15,3.20
2020,12,06,01,16,3.20
2020,12,06,01,17,3.20
2020,12,06,01,18,3.20
2020,12,06,01,19,3.20
2020,12,06,01,20,3.20
2020,12,06,01,21,3.20
2020,12,06,01,22,3.20
2020,12,06,01,23,3.20
2020,12,06,01,24,3.20
2020,12,06,01,25,3.20
2020,12,06,01,26,3.20
2020,12,06,01,27,3.20
2020,12,06,01,28,3.30
2020,12,06,01,29,3.30
2020,12,06,01,30,3.30
2020,12,06,01,31,3.30
2020,12,06,01,32,3.20
2020,12,06,01,33,3.20
2020,12,06,01,34,3.10
2020,12,06,01,35,3.10
2020,12,06,01,36,3.10
2020,12,06,01,37,3.10
2020,12,06,01,38,3.10
2020,12,06,01,39,3.10
2020,12,06,01,40,3.10
2020,12,06,01,41,3.10
2020,12,06,01,42,3.00
2020,12,06,01,43,3.00
2020,12,06,01,44,3.00
2020,12,06,01,45,3.00
2020,12,06,01,46,3.00
2020,12,06,01,47,3.00
2020,12,06,01,48,3.00
2020,12,06,01,49,3.00
2020,12,06,01,50,3.10
2020,12,06,01,51,3.10
2020,12,06,01,52,3.10
2020,12,06,01,53,3.20
2020,12,06,01,54,3.20
2020,12,06,01,55,3.20
2020,12,06,01,56,3.10
2020,12,06,01,57,3.10
2020,12,06,01,58,3.00
2020,12,06,01,59,3.00
2020,12,06,02,00,2.90
2020,12,06,02,01,2.90
2020,12,06,02,02,2.90
2020,12,06,02,03,2.90
2020,12,06,02,04,2.90
2020,12,06,02,05,2.90
2020,12,06,02,06,2.90
2020,12,06,02,07,2.80
2020,12,06,02,08,2.80
2020,12,06,02,09,2.80
2020,12,06,02,10,2.80
2020,12,06,02,11,2.80
2020,12,06,02,12,2.80
2020,12,06,02,13,2.80
2020,12,06,02,14,2.80
2020,12,06,02,15,2.80
2020,12,06,02,16,2.80
2020,12,06,02,17,2.80
2020,12,06,02,18,2.80
2020,12,06,02,19,2.80
2020,12,06,02,20,2.80
2020,12,06,02,21,2.80
2020,12,06,02,22,2.80
2020,12,06,02,23,2.80
2020,12,06,02,24,2.80
2020,12,06,02,25,2.80
2020,12,06,02,26,2.80
2020,12,06,02,27,2.80
2020,12,06,02,28,2.90
2020,12,06,02,29,2.90
2020,12,06,02,30,2.90
2020,12,06,02,31,2.90
2020,12,06,02,32,2.90
2020,12,06,02,33,2.90
2020,12,06,02,34,2.90
2020,12,06,02,35,3.00
2020,12,06,02,36,3.00
2020,12,06,02,37,3.00
2020,12,06,02,38,3.00
2020,12,06,02,39,3.00
2020,12,06,02,40,3.00
2020,12,06,02,41,3.00
2020,12,06,02,42,3.00
2020,12,06,02,43,3.00
2020,12,06,02,44,3.00
2020,12,06,02,45,3.00
2020,12,06,02,46,3.00
2020,12,06,02,47,3.10
2020,12,06,02,48,3.10
2020,12,06,02,49,3.10
2020,12,06,02,50,3.10
2020,12,06,02,51,3.10
2020,12,06,02,52,3.10
2020,12,06,02,53,3.00
2020,12,06,02,54,3.00
2020,12,06,02,55,3.00
2020,12,06,02,56,3.00
2020,12,06,02,57,3.00
2020,12,06,02,58,3.00
2020,12,06,02,59,3.00
2020,12,06,03,00,3.00
2020,12,06,03,01,3.00
2020,12,06,03,02,3.00
2020,12,06,03,03,3.00
2020,12,06,03,04,3.00
2020,12,06,03,05,3.00
2020,12,06,03,06,2.90
2020,12,06,03,07,2.90
2020,12,06,03,08,2.90
2020,12,06,03,09,2.90
2020,12,06,03,10,2.90
2020,12,06,03,11,2.90
2020,12,06,03,12,2.90
2020,12,06,03,13,2.90
2020,12,06,03,14,2.90
2020,12,06,03,15,3.00
2020,12,06,03,16,3.00
2020,12,06,03,17,3.00
2020,12,06,03,18,3.00
2020,12,06,03,19,3.00
2020,12,06,03,20,3.00
2020,12,06,03,21,3.00
2020,12,06,03,22,3.10
2020,12,06,03,23,3.10
2020,12,06,03,24,3.10
2020,12,06,03,25,3.10
2020,12,06,03,26,3.10
2020,12,06,03,27,3.10
2020,12,06,03,28,3.10
2020,12,06,03,29,3.10
2020,12,06,03,30,3.10
2020,12,06,03,31,3.10
2020,12,06,03,32,3.10
2020,12,06,03,33,3.10
2020,12,06,03,34,3.10
2020,12,06,03,35,3.10
2020,12,06,03,36,3.10
2020,12,06,03,37,3.10
2020,12,06,03,38,3.10
2020,12,06,03,39,3.10
2020,12,06,03,40,3.10
2020,12,06,03,41,3.10
2020,12,06,03,42,3.10
2020,12,06,03,43,3.10
2020,12,06,03,44,3.10
2020,12,06,03,45,3.10
2020,12,06,03,46,3.00
2020,12,06,03,47,3.00
2020,12,06,03,48,3.00
2020,12,06,03,49,3.00
2020,12,06,03,50,3.00
2020,12,06,03,51,3.00
2020,12,06,03,52,3.00
2020,12,06,03,53,3.00
2020,12,06,03,54,3.00
2020,12,06,03,55,3.10
2020,12,06,03,56,3.10
2020,12,06,03,57,3.10
2020,12,06,03,58,3.10
2020,12,06,03,59,3.10
2020,12,06,04,00,3.10
2020,12,06,04,01,3.10
2020,12,06,04,02,3.10
2020,12,06,04,03,3.10
2020,12,06,04,04,3.10
2020,12,06,04,05,3.10
2020,12,06,04,06,3.10
2020,12,06,04,07,3.10
2020,12,06,04,08,3.10
2020,12,06,04,09,3.10
2020,12,06,04,10,3.20
2020,12,06,04,11,3.20
2020,12,06,04,12,3.20
2020,12,06,04,13,3.20
2020,12,06,04,14,3.20
2020,12,06,04,15,3.20
2020,12,06,04,16,3.20
2020,12,06,04,17,3.20
2020,12,06,04,18,3.20
2020,12,06,04,19,3.20
2020,12,06,04,20,3.30
2020,12,06,04,21,3.30
2020,12,06,04,22,3.30
2020,12,06,04,23,3.30
2020,12,06,04,24,3.30
2020,12,06,04,25,3.30
2020,12,06,04,26,3.30
2020,12,06,04,27,3.30
2020,12,06,04,28,3.30
2020,12,06,04,29,3.30
2020,12,06,04,30,3.30
2020,12,06,04,31,3.30
2020,12,06,04,32,3.30
2020,12,06,04,33,3.40
2020,12,06,04,34,3.40
2020,12,06,04,35,3.40
2020,12,06,04,36,3.40
2020,12,06,04,37,3.40
2020,12,06,04,38,3.40
2020,12,06,04,39,3.40
2020,12,06,04,40,3.40
2020,12,06,04,41,3.40
2020,12,06,04,42,3.40
2020,12,06,04,43,3.50
2020,12,06,04,44,3.50
2020,12,06,04,45,3.50
2020,12,06,04,46,3.50
2020,12,06,04,47,3.60
2020,12,06,04,48,3.60
2020,12,06,04,49,3.60
2020,12,06,04,50,3.60
2020,12,06,04,51,3.70
2020,12,06,04,52,3.70
2020,12,06,04,53,3.70
2020,12,06,04,54,3.70
2020,12,06,04,55,3.70
2020,12,06,04,56,3.70
2020,12,06,04,57,3.70
2020,12,06,04,58,3.70
2020,12,06,04,59,3.70
2020,12,06,05,00,3.80
2020,12,06,05,01,3.80
2020,12,06,05,02,3.80
2020,12,06,05,03,3.80
2020,12,06,05,04,3.80
2020,12,06,05,05,3.80
2020,12,06,05,06,3.80
2020,12,06,05,07,3.80
2020,12,06,05,08,3.80
2020,12,06,05,09,3.80
2020,12,06,05,10,3.80
2020,12,06,05,11,3.80
2020,12,06,05,12,3.80
2020,12,06,05,13,3.80
2020,12,06,05,14,3.90
2020,12,06,05,15,3.90
2020,12,06,05,16,3.90
2020,12,06,05,17,3.90
2020,12,06,05,18,3.90
2020,12,06,05,19,3.90
2020,12,06,05,20,3.90
2020,12,06,05,21,4.00
2020,12,06,05,22,4.00
2020,12,06,05,23,4.00
2020,12,06,05,24,4.00
2020,12,06,05,25,4.00
2020,12,06,05,26,4.00
2020,12,06,05,27,4.00
2020,12,06,05,28,4.00
2020,12,06,05,29,4.00
2020,12,06,05,30,4.00
2020,12,06,05,31,4.00
2020,12,06,05,32,4.00
2020,12,06,05,33,3.90
2020,12,06,05,34,3.90
2020,12,06,05,35,4.00
2020,12,06,05,36,4.00
2020,12,06,05,37,3.90
2020,12,06,05,38,3.90
2020,12,06,05,39,4.00
2020,12,06,05,40,4.00
2020,12,06,05,41,4.00
2020,12,06,05,42,4.00
2020,12,06,05,43,4.00
2020,12,06,05,44,4.00
2020,12,06,05,45,4.00
2020,12,06,05,46,4.10
2020,12,06,05,47,4.10
2020,12,06,05,48,4.10
2020,12,06,05,49,4.10
2020,12,06,05,50,4.10
2020,12,06,05,51,4.10
2020,12,06,05,52,4.10
2020,12,06,05,53,4.10
2020,12,06,05,54,4.10
2020,12,06,05,55,4.10
2020,12,06,05,56,4.10
2020,12,06,05,57,4.20
2020,12,06,05,58,4.20
2020,12,06,05,59,4.20
2020,12,06,06,00,4.20
2020,12,06,06,01,4.20
2020,12,06,06,02,4.20
2020,12,06,06,03,4.20
2020,12,06,06,04,4.20
2020,12,06,06,05,4.20
2020,12,06,06,06,4.20
2020,12,06,06,07,4.20
2020,12,06,06,08,4.20
2020,12,06,06,09,4.20
2020,12,06,06,10,4.20
2020,12,06,06,11,4.20
2020,12,06,06,12,4.20
2020,12,06,06,13,4.30
2020,12,06,06,14,4.30
2020,12,06,06,15,4.30
2020,12,06,06,16,4.30
2020,12,06,06,17,4.30
2020,12,06,06,18,4.30
2020,12,06,06,19,4.30
2020,12,06,06,20,4.30
2020,12,06,06,21,4.30
2020,12,06,06,22,4.30
2020,12,06,06,23,4.30
2020,12,06,06,24,4.30
2020,12,06,06,25,4.30
2020,12,06,06,26,4.30
2020,12,06,06,27,4.30
2020,12,06,06,28,4.30
2020,12,06,06,29,4.30
2020,12,06,06,30,4.30
2020,12,06,06,31,4.40
2020,12,06,06,32,4.40
2020,12,06,06,33,4.40
2020,12,06,06,34,4.40
2020,12,06,06,35,4.40
2020,12,06,06,36,4.40
2020,12,06,06,37,4.40
2020,12,06,06,38,4.40
2020,12,06,06,39,4.40
2020,12,06,06,40,4.40
2020,12,06,06,41,4.40
2020,12,06,06,42,4.40
2020,12,06,06,43,4.40
2020,12,06,06,44,4.40
2020,12,06,06,45,4.40
2020,12,06,06,46,4.40
2020,12,06,06,47,4.40
2020,12,06,06,48,4.40
2020,12,06,06,49,4.50
2020,12,06,06,50,4.50
2020,12,06,06,51,4.50
2020,12,06,06,52,4.50
2020,12,06,06,53,4.50
2020,12,06,06,54,4.50
2020,12,06,06,55,4.50
2020,12,06,06,56,4.50
2020,12,06,06,57,4.50
2020,12,06,06,58,4.50
2020,12,06,06,59,4.40
2020,12,06,07,00,4.40
2020,12,06,07,01,4.40
2020,12,06,07,02,4.40
2020,12,06,07,03,4.40
2020,12,06,07,04,4.40
2020,12,06,07,05,4.40
2020,12,06,07,06,4.40
2020,12,06,07,07,4.40
2020,12,06,07,08,4.40
2020,12,06,07,09,4.40
2020,12,06,07,10,4.40
2020,12,06,07,11,4.40
2020,12,06,07,12,4.40
2020,12,06,07,13,4.40
2020,12,06,07,14,4.30
2020,12,06,07,15,4.30
2020,12,06,07,16,4.30
2020,12,06,07,17,4.30
2020,12,06,07,18,4.30
2020,12,06,07,19,4.30
2020,12,06,07,20,4.30
2020,12,06,07,21,4.20
2020,12,06,07,22,4.20
2020,12,06,07,23,4.20
2020,12,06,07,24,4.20
2020,12,06,07,25,4.20
2020,12,06,07,26,4.10
2020,12,06,07,27,4.10
2020,12,06,07,28,4.20
2020,12,06,07,29,4.10
2020,12,06,07,30,4.10
2020,12,06,07,31,4.10
2020,12,06,07,32,4.10
2020,12,06,07,33,4.10
2020,12,06,07,34,4.10
2020,12,06,07,35,4.10
2020,12,06,07,36,4.10
2020,12,06,07,37,4.10
2020,12,06,07,38,4.10
2020,12,06,07,39,4.10
2020,12,06,07,40,4.10
2020,12,06,07,41,4.00
2020,12,06,07,42,4.00
2020,12,06,07,43,4.00
2020,12,06,07,44,4.00
2020,12,06,07,45,4.00
2020,12,06,07,46,3.90
2020,12,06,07,47,3.90
2020,12,06,07,48,3.90
2020,12,06,07,49,3.90
2020,12,06,07,50,3.90
2020,12,06,07,51,3.90
2020,12,06,07,52,3.90
2020,12,06,07,53,3.90
2020,12,06,07,54,3.90
2020,12,06,07,55,3.90
2020,12,06,07,56,3.90
2020,12,06,07,57,3.90
2020,12,06,07,58,3.90
2020,12,06,07,59,3.90
2020,12,06,08,00,3.90
2020,12,06,08,01,3.90
2020,12,06,08,02,3.90
2020,12,06,08,03,3.90
2020,12,06,08,04,3.90
2020,12,06,08,05,3.80
2020,12,06,08,06,3.80
2020,12,06,08,07,3.80
2020,12,06,08,08,3.80
2020,12,06,08,09,3.80
2020,12,06,08,10,3.80
2020,12,06,08,11,3.80
2020,12,06,08,12,3.80
2020,12,06,08,13,3.80
2020,12,06,08,14,3.80
2020,12,06,08,15,3.80
2020,12,06,08,16,3.80
2020,12,06,08,17,3.80
2020,12,06,08,18,3.80
2020,12,06,08,19,3.80
2020,12,06,08,20,3.80
2020,12,06,08,21,3.80
2020,12,06,08,22,3.80
2020,12,06,08,23,3.90
2020,12,06,08,24,3.90
2020,12,06,08,25,3.90
2020,12,06,08,26,3.90
2020,12,06,08,27,3.90
2020,12,06,08,28,3.90
2020,12,06,08,29,4.00
2020,12,06,08,30,4.00
2020,12,06,08,31,4.00
2020,12,06,08,32,4.00
2020,12,06,08,33,4.00
2020,12,06,08,34,4.10
2020,12,06,08,35,4.10
2020,12,06,08,36,4.10
2020,12,06,08,37,4.10
2020,12,06,08,38,4.10
2020,12,06,08,39,4.10
2020,12,06,08,40,4.10
2020,12,06,08,41,4.00
2020,12,06,08,42,4.00
2020,12,06,08,43,4.00
2020,12,06,08,44,4.00
2020,12,06,08,45,4.00
2020,12,06,08,46,4.00
2020,12,06,08,47,4.00
2020,12,06,08,48,4.00
2020,12,06,08,49,4.00
2020,12,06,08,50,4.00
2020,12,06,08,51,4.00
2020,12,06,08,52,4.00
2020,12,06,08,53,4.10
2020,12,06,08,54,4.10
2020,12,06,08,55,4.10
2020,12,06,08,56,4.10
2020,12,06,08,57,4.10
2020,12,06,08,58,4.20
2020,12,06,08,59,4.20
2020,12,06,09,00,4.20
2020,12,06,09,01,4.20
2020,12,06,09,02,4.20
2020,12,06,09,03,4.20
2020,12,06,09,04,4.20
2020,12,06,09,05,4.20
2020,12,06,09,06,4.20
2020,12,06,09,07,4.20
2020,12,06,09,08,4.20
2020,12,06,09,09,4.20
2020,12,06,09,10,4.20
2020,12,06,09,11,4.20
2020,12,06,09,12,4.30
2020,12,06,09,13,4.30
2020,12,06,09,14,4.30
2020,12,06,09,15,4.30
2020,12,06,09,16,4.30
2020,12,06,09,17,4.40
2020,12,06,09,18,4.40
2020,12,06,09,19,4.40
2020,12,06,09,20,4.50
2020,12,06,09,21,4.50
2020,12,06,09,22,4.60
2020,12,06,09,23,4.60
2020,12,06,09,24,4.60
2020,12,06,09,25,4.60
2020,12,06,09,26,4.70
2020,12,06,09,27,4.70
2020,12,06,09,28,4.70
2020,12,06,09,29,4.70
2020,12,06,09,30,4.70
2020,12,06,09,31,4.80
2020,12,06,09,32,4.80
2020,12,06,09,33,4.80
2020,12,06,09,34,4.90
2020,12,06,09,35,4.90
2020,12,06,09,36,4.90
2020,12,06,09,37,4.90
2020,12,06,09,38,4.90
2020,12,06,09,39,5.00
2020,12,06,09,40,5.00
2020,12,06,09,41,5.10
2020,12,06,09,42,5.10
2020,12,06,09,43,5.10
2020,12,06,09,44,5.20
2020,12,06,09,45,5.20
2020,12,06,09,46,5.30
2020,12,06,09,47,5.30
2020,12,06,09,48,5.40
2020,12,06,09,49,5.50
2020,12,06,09,50,5.50
2020,12,06,09,51,5.60
2020,12,06,09,52,5.60
2020,12,06,09,53,5.70
2020,12,06,09,54,5.70
2020,12,06,09,55,5.80
2020,12,06,09,56,5.80
2020,12,06,09,57,5.80
2020,12,06,09,58,5.90
2020,12,06,09,59,5.90
2020,12,06,10,00,6.00
2020,12,06,10,01,6.00
2020,12,06,10,02,6.00
2020,12,06,10,03,6.10
2020,12,06,10,04,6.10
2020,12,06,10,05,6.10
2020,12,06,10,06,6.10
2020,12,06,10,07,6.20
2020,12,06,10,08,6.20
2020,12,06,10,09,6.20
2020,12,06,10,10,6.30
2020,12,06,10,11,6.30
2020,12,06,10,12,6.40
2020,12,06,10,13,6.50
2020,12,06,10,14,6.60
2020,12,06,10,15,6.60
2020,12,06,10,16,6.70
2020,12,06,10,17,6.80
2020,12,06,10,18,7.00
2020,12,06,10,19,7.10
2020,12,06,10,20,7.20
2020,12,06,10,21,7.30
2020,12,06,10,22,7.50
2020,12,06,10,23,7.60
2020,12,06,10,24,7.70
2020,12,06,10,25,7.80
2020,12,06,10,26,7.90
2020,12,06,10,27,8.00
2020,12,06,10,28,8.10
2020,12,06,10,29,8.10
2020,12,06,10,30,8.20
2020,12,06,10,31,8.30
2020,12,06,10,32,8.40
2020,12,06,10,33,8.50
2020,12,06,10,34,8.60
2020,12,06,10,35,8.60
2020,12,06,10,36,8.70
2020,12,06,10,37,8.80
2020,12,06,10,38,8.80
2020,12,06,10,39,8.80
2020,12,06,10,40,8.90
2020,12,06,10,41,8.90
2020,12,06,10,42,8.90
2020,12,06,10,43,9.00
2020,12,06,10,44,9.00
2020,12,06,10,45,9.10
2020,12,06,10,46,9.10
2020,12,06,10,47,9.20
2020,12,06,10,48,9.30
2020,12,06,10,49,9.30
2020,12,06,10,50,9.40
2020,12,06,10,51,9.40
2020,12,06,10,52,9.50
2020,12,06,10,53,9.50
2020,12,06,10,54,9.60
2020,12,06,10,55,9.60
2020,12,06,10,56,9.70
2020,12,06,10,57,9.70
2020,12,06,10,58,9.70
2020,12,06,10,59,9.70
2020,12,06,11,00,9.80
2020,12,06,11,01,9.80
2020,12,06,11,02,9.80
2020,12,06,11,03,9.80
2020,12,06,11,04,9.90
2020,12,06,11,05,9.90
2020,12,06,11,06,9.90
2020,12,06,11,07,9.90
2020,12,06,11,08,9.90
2020,12,06,11,09,10.00
2020,12,06,11,10,10.00
2020,12,06,11,11,10.00
2020,12,06,11,12,10.00
2020,12,06,11,13,10.00
2020,12,06,11,14,10.10
2020,12,06,11,15,10.10
2020,12,06,11,16,10.10
2020,12,06,11,17,10.10
2020,12,06,11,18,10.20
2020,12,06,11,19,10.20
2020,12,06,11,20,10.20
2020,12,06,11,21,10.20
2020,12,06,11,22,10.20
2020,12,06,11,23,10.20
2020,12,06,11,24,10.20
2020,12,06,11,25,10.20
2020,12,06,11,26,10.20
2020,12,06,11,27,10.30
2020,12,06,11,28,10.30
2020,12,06,11,29,10.30
2020,12,06,11,30,10.30
2020,12,06,11,31,10.30
2020,12,06,11,32,10.30
2020,12,06,11,33,10.40
2020,12,06,11,34,10.40
2020,12,06,11,35,10.40
2020,12,06,11,36,10.40
2020,12,06,11,37,10.50
2020,12,06,11,38,10.50
2020,12,06,11,39,10.50
2020,12,06,11,40,10.50
2020,12,06,11,41,10.50
2020,12,06,11,42,10.50
2020,12,06,11,43,10.50
2020,12,06,11,44,10.50
2020,12,06,11,45,10.50
2020,12,06,11,46,10.50
2020,12,06,11,47,10.50
2020,12,06,11,48,10.50
2020,12,06,11,49,10.50
2020,12,06,11,50,10.50
2020,12,06,11,51,10.50
2020,12,06,11,52,10.50
2020,12,06,11,53,10.50
2020,12,06,11,54,10.50
2020,12,06,11,55,10.50
2020,12,06,11,56,10.50
2020,12,06,11,57,10.50
2020,12,06,11,58,10.60
2020,12,06,11,59,10.60
2020,12,06,12,00,10.60
2020,12,06,12,01,10.60
2020,12,06,12,02,10.60
2020,12,06,12,03,10.60
2020,12,06,12,04,10.60
2020,12,06,12,05,10.60
2020,12,06,12,06,10.70
2020,12,06,12,07,10.70
2020,12,06,12,08,10.80
2020,12,06,12,09,10.80
2020,12,06,12,10,10.80
2020,12,06,12,11,10.90
2020,12,06,12,12,10.90
2020,12,06,12,13,10.90
2020,12,06,12,14,10.90
2020,12,06,12,15,10.90
2020,12,06,12,16,10.90
2020,12,06,12,17,10.90
2020,12,06,12,18,10.90
2020,12,06,12,19,10.90
2020,12,06,12,20,11.00
2020,12,06,12,21,11.00
2020,12,06,12,22,11.00
2020,12,06,12,23,11.10
2020,12,06,12,24,11.10
2020,12,06,12,25,11.10
2020,12,06,12,26,11.10
2020,12,06,12,27,11.10
2020,12,06,12,28,11.10
2020,12,06,12,29,11.10
2020,12,06,12,30,11.10
2020,12,06,12,31,11.10
2020,12,06,12,32,11.10
2020,12,06,12,33,11.10
2020,12,06,12,34,11.10
2020,12,06,12,35,11.10
2020,12,06,12,36,11.10
2020,12,06,12,37,11.10
2020,12,06,12,38,11.10
2020,12,06,12,39,11.10
2020,12,06,12,40,11.10
2020,12,06,12,41,11.20
2020,12,06,12,42,11.20
2020,12,06,12,43,11.20
2020,12,06,12,44,11.20
2020,12,06,12,45,11.20
2020,12,06,12,46,11.20
2020,12,06,12,47,11.30
2020,12,06,12,48,11.30
2020,12,06,12,49,11.30
2020,12,06,12,50,11.30
2020,12,06,12,51,11.30
2020,12,06,12,52,11.30
2020,12,06,12,53,11.30
2020,12,06,12,54,11.30
2020,12,06,12,55,11.30
2020,12,06,12,56,11.30
2020,12,06,12,57,11.30
2020,12,06,12,58,11.30
2020,12,06,12,59,11.30
2020,12,06,13,00,11.40
2020,12,06,13,01,11.40
2020,12,06,13,02,11.40
2020,12,06,13,03,11.30
2020,12,06,13,04,11.30
2020,12,06,13,05,11.30
2020,12,06,13,06,11.30
2020,12,06,13,07,11.40
2020,12,06,13,08,11.40
2020,12,06,13,09,11.40
2020,12,06,13,10,11.30
2020,12,06,13,11,11.30
2020,12,06,13,12,11.40
2020,12,06,13,13,11.40
2020,12,06,13,14,11.40
2020,12,06,13,15,11.50
2020,12,06,13,16,11.50
2020,12,06,13,17,11.60
2020,12,06,13,18,11.60
2020,12,06,13,19,11.70
2020,12,06,13,20,11.70
2020,12,06,13,21,11.70
2020,12,06,13,22,11.80
2020,12,06,13,23,11.80
2020,12,06,13,24,11.80
2020,12,06,13,25,11.80
2020,12,06,13,26,11.80
2020,12,06,13,27,11.90
2020,12,06,13,28,11.80
2020,12,06,13,29,11.80
2020,12,06,13,30,11.80
2020,12,06,13,31,11.70
2020,12,06,13,32,11.70
2020,12,06,13,33,11.70
2020,12,06,13,34,11.70
2020,12,06,13,35,11.70
2020,12,06,13,36,11.70
2020,12,06,13,37,11.70
2020,12,06,13,38,11.70
2020,12,06,13,39,11.60
2020,12,06,13,40,11.60
2020,12,06,13,41,11.50
2020,12,06,13,42,11.50
2020,12,06,13,43,11.40
2020,12,06,13,44,11.40
2020,12,06,13,45,11.40
2020,12,06,13,46,11.30
2020,12,06,13,47,11.30
2020,12,06,13,48,11.30
2020,12,06,13,49,11.30
2020,12,06,13,50,11.30
2020,12,06,13,51,11.30
2020,12,06,13,52,11.30
2020,12,06,13,53,11.30
2020,12,06,13,54,11.30
2020,12,06,13,55,11.20
2020,12,06,13,56,11.20
2020,12,06,13,57,11.20
2020,12,06,13,58,11.10
2020,12,06,13,59,11.10
2020,12,06,14,00,11.10
2020,12,06,14,01,11.10
2020,12,06,14,02,11.10
2020,12,06,14,03,11.10
2020,12,06,14,04,11.10
2020,12,06,14,05,11.10
2020,12,06,14,06,11.10
2020,12,06,14,07,11.10
2020,12,06,14,08,11.10
2020,12,06,14,09,11.10
2020,12,06,14,10,11.10
2020,12,06,14,11,11.00
2020,12,06,14,12,11.00
2020,12,06,14,13,11.00
2020,12,06,14,14,11.00
2020,12,06,14,15,11.00
2020,12,06,14,16,11.00
2020,12,06,14,17,11.00
2020,12,06,14,18,11.00
2020,12,06,14,19,11.00
2020,12,06,14,20,11.00
2020,12,06,14,21,11.00
2020,12,06,14,22,11.00
2020,12,06,14,23,11.00
2020,12,06,14,24,11.00
2020,12,06,14,25,10.90
2020,12,06,14,26,10.90
2020,12,06,14,27,10.90
2020,12,06,14,28,10.90
2020,12,06,14,29,10.80
2020,12,06,14,30,10.80
2020,12,06,14,31,10.80
2020,12,06,14,32,10.80
2020,12,06,14,33,10.80
2020,12,06,14,34,10.80
2020,12,06,14,35,10.70
2020,12,06,14,36,10.70
2020,12,06,14,37,10.70
2020,12,06,14,38,10.70
2020,12,06,14,39,10.60
2020,12,06,14,40,10.60
2020,12,06,14,41,10.60
2020,12,06,14,42,10.60
2020,12,06,14,43,10.60
2020,12,06,14,44,10.50
2020,12,06,14,45,10.50
2020,12,06,14,46,10.50
2020,12,06,14,47,10.40
2020,12,06,14,48,10.40
2020,12,06,14,49,10.40
2020,12,06,14,50,10.40
2020,12,06,14,51,10.40
2020,12,06,14,52,10.40
2020,12,06,14,53,10.40
2020,12,06,14,54,10.30
2020,12,06,14,55,10.30
2020,12,06,14,56,10.30
2020,12,06,14,57,10.30
2020,12,06,14,58,10.30
2020,12,06,14,59,10.30
2020,12,06,15,00,10.30
2020,12,06,15,01,10.30
2020,12,06,15,02,10.30
2020,12,06,15,03,10.30
2020,12,06,15,04,10.30
2020,12,06,15,05,10.30
2020,12,06,15,06,10.30
2020,12,06,15,07,10.20
2020,12,06,15,08,10.20
2020,12,06,15,09,10.20
2020,12,06,15,10,10.20
2020,12,06,15,11,10.20
2020,12,06,15,12,10.30
2020,12,06,15,13,10.30
2020,12,06,15,14,10.30
2020,12,06,15,15,10.30
2020,12,06,15,16,10.30
2020,12,06,15,17,10.30
2020,12,06,15,18,10.30
2020,12,06,15,19,10.30
2020,12,06,15,20,10.30
2020,12,06,15,21,10.30
2020,12,06,15,22,10.30
2020,12,06,15,23,10.30
2020,12,06,15,24,10.30
2020,12,06,15,25,10.30
2020,12,06,15,26,10.30
2020,12,06,15,27,10.30
2020,12,06,15,28,10.30
2020,12,06,15,29,10.30
2020,12,06,15,30,10.30
2020,12,06,15,31,10.30
2020,12,06,15,32,10.30
2020,12,06,15,33,10.30
2020,12,06,15,34,10.30
2020,12,06,15,35,10.30
2020,12,06,15,36,10.30
2020,12,06,15,37,10.30
2020,12,06,15,38,10.20
2020,12,06,15,39,10.20
2020,12,06,15,40,10.20
2020,12,06,15,41,10.20
2020,12,06,15,42,10.20
2020,12,06,15,43,10.20
2020,12,06,15,44,10.10
2020,12,06,15,45,10.10
2020,12,06,15,46,10.10
2020,12,06,15,47,10.10
2020,12,06,15,48,10.00
2020,12,06,15,49,10.00
2020,12,06,15,50,10.00
2020,12,06,15,51,10.00
2020,12,06,15,52,9.90
2020,12,06,15,53,9.90
2020,12,06,15,54,9.90
2020,12,06,15,55,9.90
2020,12,06,15,56,9.90
2020,12,06,15,57,9.90
2020,12,06,15,58,9.90
2020,12,06,15,59,9.90
2020,12,06,16,00,9.80
2020,12,06,16,01,9.80
2020,12,06,16,02,9.80
2020,12,06,16,03,9.80
2020,12,06,16,04,9.80
2020,12,06,16,05,9.80
2020,12,06,16,06,9.80
2020,12,06,16,07,9.90
2020,12,06,16,08,9.90
2020,12,06,16,09,9.90
2020,12,06,16,10,9.90
2020,12,06,16,11,9.90
2020,12,06,16,12,9.90
2020,12,06,16,13,9.90
2020,12,06,16,14,9.90
2020,12,06,16,15,9.90
2020,12,06,16,16,9.90
2020,12,06,16,17,9.80
2020,12,06,16,18,9.80
2020,12,06,16,19,9.80
2020,12,06,16,20,9.80
2020,12,06,16,21,9.80
2020,12,06,16,22,9.80
2020,12,06,16,23,9.80
2020,12,06,16,24,9.80
2020,12,06,16,25,9.80
2020,12,06,16,26,9.80
2020,12,06,16,27,9.80
2020,12,06,16,28,9.80
2020,12,06,16,29,9.80
2020,12,06,16,30,9.80
2020,12,06,16,31,9.80
2020,12,06,16,32,9.80
2020,12,06,16,33,9.80
2020,12,06,16,34,9.80
2020,12,06,16,35,9.80
2020,12,06,16,36,9.80
2020,12,06,16,37,9.80
2020,12,06,16,38,9.80
2020,12,06,16,39,9.80
2020,12,06,16,40,9.80
2020,12,06,16,41,9.80
2020,12,06,16,42,9.80
2020,12,06,16,43,9.80
2020,12,06,16,44,9.80
2020,12,06,16,45,9.80
2020,12,06,16,46,9.80
2020,12,06,16,47,9.80
2020,12,06,16,48,9.80
2020,12,06,16,49,9.80
2020,12,06,16,50,9.80
2020,12,06,16,51,9.80
2020,12,06,16,52,9.80
2020,12,06,16,53,9.80
2020,12,06,16,54,9.80
2020,12,06,16,55,9.80
2020,12,06,16,56,9.80
2020,12,06,16,57,9.80
2020,12,06,16,58,9.80
2020,12,06,16,59,9.80
2020,12,06,17,00,9.80
2020,12,06,17,01,9.80
2020,12,06,17,02,9.80
2020,12,06,17,03,9.80
2020,12,06,17,04,9.80
2020,12,06,17,05,9.80
2020,12,06,17,06,9.80
2020,12,06,17,07,9.80
2020,12,06,17,08,9.80
2020,12,06,17,09,9.80
2020,12,06,17,10,9.80
2020,12,06,17,11,9.80
2020,12,06,17,12,9.80
2020,12,06,17,13,9.80
2020,12,06,17,14,9.80
2020,12,06,17,15,9.80
2020,12,06,17,16,9.80
2020,12,06,17,17,9.80
2020,12,06,17,18,9.80
2020,12,06,17,19,9.80
2020,12,06,17,20,9.80
2020,12,06,17,21,9.80
2020,12,06,17,22,9.80
2020,12,06,17,23,9.80
2020,12,06,17,24,9.80
2020,12,06,17,25,9.80
2020,12,06,17,26,9.80
2020,12,06,17,27,9.80
2020,12,06,17,28,9.80
2020,12,06,17,29,9.80
2020,12,06,17,30,9.80
2020,12,06,17,31,9.80
2020,12,06,17,32,9.80
2020,12,06,17,33,9.80
2020,12,06,17,34,9.80
2020,12,06,17,35,9.80
2020,12,06,17,36,9.80
2020,12,06,17,37,9.80
2020,12,06,17,38,9.80
2020,12,06,17,39,9.80
2020,12,06,17,40,9.80
2020,12,06,17,41,9.80
2020,12,06,17,42,9.80
2020,12,06,17,43,9.80
2020,12,06,17,44,9.80
2020,12,06,17,45,9.80
2020,12,06,17,46,9.80
2020,12,06,17,47,9.80
2020,12,06,17,48,9.80
2020,12,06,17,49,9.80
2020,12,06,17,50,9.80
2020,12,06,17,51,9.80
2020,12,06,17,52,9.80
2020,12,06,17,53,9.80